• In Romania
  • List of Countries
  • For 7 days
  • Water Temperature
  • Satellite Maps
  • Weather Map
  • Weather Widgets
  • user-avatar
    Login

    Hourly Weather La Rioja

    Today, 19 November, Sunday

    Time Temperature Precipitation Wind Pressure Humidity
    00:00 +23°C° 0 mm 2 mps 713 mmHg 28%
    01:00 +23°C° 0 mm 2 mps 713 mmHg 28%
    02:00 +21°C° 0 mm 2 mps 712 mmHg 29%
    03:00 +21°C° 0 mm 2 mps 712 mmHg 28%
    04:00 +20°C° 0 mm 2 mps 712 mmHg 27%
    05:00 +20°C° 0 mm 2 mps 712 mmHg 27%
    06:00 +23°C° 0 mm 2 mps 712 mmHg 23%
    07:00 +25°C° 0 mm 2 mps 713 mmHg 20%
    08:00 +27°C° 0 mm 2 mps 713 mmHg 17%
    09:00 +28°C° 0 mm 2 mps 713 mmHg 16%
    10:00 +30°C° 0 mm 2 mps 712 mmHg 14%
    11:00 +31°C° 0 mm 2 mps 712 mmHg 12%
    12:00 +33°C° 0 mm 3 mps 712 mmHg 11%
    13:00 +34°C° 0 mm 3 mps 711 mmHg 10%
    14:00 +36°C° 0 mm 4 mps 710 mmHg 9%
    15:00 +36°C° 0 mm 4 mps 710 mmHg 9%
    16:00 +36°C° 0 mm 4 mps 709 mmHg 9%
    17:00 +36°C° 0 mm 5 mps 708 mmHg 9%
    18:00 +34°C° 0 mm 4 mps 708 mmHg 11%
    19:00 +31°C° 0 mm 3 mps 709 mmHg 13%
    20:00 +29°C° 0 mm 3 mps 709 mmHg 15%
    21:00 +28°C° 0 mm 3 mps 709 mmHg 16%
    22:00 +27°C° 0 mm 3 mps 709 mmHg 18%
    23:00 +27°C° 0 mm 2 mps 710 mmHg 19%

    Tomorrow, 20 November, Monday

    Time Temperature Precipitation Wind Pressure Humidity
    00:00 +26°C° 0 mm 2 mps 710 mmHg 20%
    01:00 +25°C° 0 mm 2 mps 709 mmHg 21%
    02:00 +25°C° 0 mm 2 mps 709 mmHg 22%
    03:00 +24°C° 0 mm 2 mps 709 mmHg 24%
    04:00 +24°C° 0 mm 2 mps 709 mmHg 26%
    05:00 +23°C° 0 mm 2 mps 709 mmHg 27%
    06:00 +25°C° 0 mm 2 mps 709 mmHg 26%
    07:00 +26°C° 0 mm 2 mps 710 mmHg 25%
    08:00 +28°C° 0 mm 3 mps 710 mmHg 24%
    09:00 +30°C° 0 mm 3 mps 710 mmHg 22%
    10:00 +31°C° 0 mm 3 mps 710 mmHg 19%
    11:00 +34°C° 0 mm 3 mps 710 mmHg 16%
    12:00 +35°C° 0 mm 4 mps 709 mmHg 15%
    13:00 +36°C° 0 mm 4 mps 709 mmHg 13%
    14:00 +37°C° 0 mm 4 mps 708 mmHg 12%
    15:00 +37°C° 0 mm 4 mps 708 mmHg 12%
    16:00 +37°C° 0 mm 4 mps 707 mmHg 11%
    17:00 +37°C° 0 mm 4 mps 707 mmHg 11%
    18:00 +36°C° 0 mm 4 mps 708 mmHg 13%
    19:00 +34°C° 0 mm 3 mps 709 mmHg 14%
    20:00 +33°C° 0 mm 3 mps 709 mmHg 15%
    21:00 +32°C° 0.1 mm 4 mps 711 mmHg 17%
    22:00 +30°C° 0.1 mm 5 mps 712 mmHg 20%
    23:00 +29°C° 0.1 mm 6 mps 713 mmHg 22%

    Day after tomorrow, 21 November, Tuesday

    Time Temperature Precipitation Wind Pressure Humidity
    00:00 +27°C° 0 mm 6 mps 714 mmHg 35%
    01:00 +25°C° 0 mm 5 mps 714 mmHg 48%
    02:00 +22°C° 0 mm 4 mps 715 mmHg 61%
    03:00 +22°C° 0 mm 4 mps 715 mmHg 64%
    04:00 +21°C° 0 mm 3 mps 716 mmHg 67%
    05:00 +21°C° 0 mm 3 mps 716 mmHg 71%
    06:00 +21°C° 0 mm 3 mps 716 mmHg 67%
    07:00 +22°C° 0 mm 3 mps 717 mmHg 62%
    08:00 +24°C° 0 mm 3 mps 717 mmHg 58%
    09:00 +25°C° 0 mm 3 mps 717 mmHg 52%
    10:00 +26°C° 0 mm 3 mps 717 mmHg 47%
    11:00 +28°C° 0 mm 3 mps 717 mmHg 41%
    12:00 +29°C° 0.1 mm 4 mps 716 mmHg 38%
    13:00 +30°C° 0.1 mm 4 mps 716 mmHg 34%
    14:00 +32°C° 0.1 mm 4 mps 715 mmHg 31%
    15:00 +32°C° 0.1 mm 4 mps 714 mmHg 30%
    16:00 +32°C° 0.1 mm 5 mps 714 mmHg 29%
    17:00 +32°C° 0.1 mm 5 mps 714 mmHg 28%
    18:00 +30°C° 0 mm 4 mps 714 mmHg 31%
    19:00 +29°C° 0 mm 4 mps 715 mmHg 33%
    20:00 +28°C° 0 mm 4 mps 715 mmHg 36%
    21:00 +27°C° 0 mm 3 mps 716 mmHg 39%
    22:00 +26°C° 0 mm 2 mps 716 mmHg 43%
    23:00 +26°C° 0 mm 2 mps 716 mmHg 46%

    22 November, Wednesday

    Time Temperature Precipitation Wind Pressure Humidity
    00:00 +25°C° 0.3 mm 2 mps 716 mmHg 49%
    01:00 +24°C° 0.3 mm 1 mps 716 mmHg 51%
    02:00 +24°C° 0.3 mm 1 mps 715 mmHg 54%
    03:00 +23°C° 0 mm 1 mps 715 mmHg 56%
    04:00 +23°C° 0 mm 1 mps 715 mmHg 58%
    05:00 +21°C° 0 mm 2 mps 715 mmHg 60%
    06:00 +24°C° 0 mm 2 mps 715 mmHg 54%
    07:00 +25°C° 0 mm 2 mps 715 mmHg 48%
    08:00 +27°C° 0 mm 2 mps 716 mmHg 43%
    09:00 +28°C° 0 mm 2 mps 715 mmHg 37%
    10:00 +30°C° 0 mm 3 mps 715 mmHg 31%
    11:00 +33°C° 0 mm 3 mps 714 mmHg 25%
    12:00 +34°C° 0 mm 3 mps 713 mmHg 22%
    13:00 +35°C° 0 mm 4 mps 712 mmHg 19%
    14:00 +36°C° 0 mm 4 mps 711 mmHg 16%
    15:00 +36°C° 0 mm 4 mps 711 mmHg 16%
    16:00 +37°C° 0 mm 4 mps 710 mmHg 15%
    17:00 +37°C° 0 mm 4 mps 709 mmHg 15%
    18:00 +35°C° 0 mm 4 mps 710 mmHg 18%
    19:00 +34°C° 0 mm 4 mps 710 mmHg 21%
    20:00 +31°C° 0 mm 3 mps 710 mmHg 24%
    21:00 +30°C° 0 mm 3 mps 710 mmHg 26%
    22:00 +29°C° 0 mm 3 mps 711 mmHg 29%
    23:00 +28°C° 0 mm 3 mps 711 mmHg 31%

    23 November, Thursday

    Time Temperature Precipitation Wind Pressure Humidity
    00:00 +27°C° 0 mm 2 mps 710 mmHg 33%
    01:00 +27°C° 0 mm 2 mps 710 mmHg 34%
    02:00 +26°C° 0 mm 2 mps 710 mmHg 36%
    03:00 +25°C° 0 mm 1 mps 709 mmHg 37%
    04:00 +25°C° 0 mm 1 mps 709 mmHg 38%
    05:00 +24°C° 0 mm 1 mps 709 mmHg 39%
    06:00 +26°C° 0 mm 2 mps 709 mmHg 35%
    07:00 +28°C° 0 mm 2 mps 710 mmHg 31%
    08:00 +30°C° 0 mm 2 mps 710 mmHg 27%
    09:00 +31°C° 0 mm 2 mps 710 mmHg 24%
    10:00 +34°C° 0 mm 3 mps 709 mmHg 21%
    11:00 +36°C° 0 mm 3 mps 709 mmHg 17%
    12:00 +37°C° 0 mm 3 mps 708 mmHg 16%
    13:00 +38°C° 0 mm 3 mps 708 mmHg 14%
    14:00 +40°C° 0 mm 4 mps 707 mmHg 12%
    15:00 +40°C° 0 mm 4 mps 707 mmHg 12%
    16:00 +40°C° 0 mm 4 mps 706 mmHg 12%
    17:00 +40°C° 0 mm 4 mps 706 mmHg 12%
    18:00 +38°C° 0 mm 4 mps 707 mmHg 14%
    19:00 +36°C° 0 mm 4 mps 707 mmHg 17%
    20:00 +35°C° 0 mm 4 mps 708 mmHg 20%
    21:00 +34°C° 0 mm 3 mps 708 mmHg 23%
    22:00 +33°C° 0 mm 3 mps 709 mmHg 26%
    23:00 +31°C° 0 mm 2 mps 709 mmHg 29%

    24 November, Friday

    Time Temperature Precipitation Wind Pressure Humidity
    00:00 +30°C° 0 mm 3 mps 710 mmHg 30%
    01:00 +30°C° 0 mm 3 mps 710 mmHg 31%
    02:00 +29°C° 0 mm 3 mps 710 mmHg 31%
    03:00 +28°C° 0 mm 4 mps 710 mmHg 36%
    04:00 +27°C° 0 mm 5 mps 710 mmHg 40%
    05:00 +25°C° 0 mm 5 mps 711 mmHg 44%
    06:00 +26°C° 0 mm 5 mps 711 mmHg 42%
    07:00 +27°C° 0 mm 5 mps 712 mmHg 40%
    08:00 +27°C° 0 mm 5 mps 712 mmHg 38%
    09:00 +29°C° 0 mm 5 mps 712 mmHg 36%
    10:00 +30°C° 0 mm 5 mps 711 mmHg 33%
    11:00 +32°C° 0 mm 5 mps 711 mmHg 30%
    12:00 +33°C° 0 mm 5 mps 710 mmHg 29%
    13:00 +34°C° 0 mm 6 mps 710 mmHg 28%
    14:00 +35°C° 0 mm 6 mps 709 mmHg 27%
    15:00 +35°C° 0 mm 6 mps 709 mmHg 28%
    16:00 +34°C° 0 mm 7 mps 709 mmHg 30%
    17:00 +34°C° 0 mm 7 mps 708 mmHg 31%
    18:00 +33°C° 0.1 mm 6 mps 709 mmHg 36%
    19:00 +30°C° 0.1 mm 5 mps 710 mmHg 41%
    20:00 +29°C° 0.1 mm 4 mps 711 mmHg 46%
    21:00 +28°C° 0.2 mm 4 mps 712 mmHg 51%
    22:00 +27°C° 0.2 mm 4 mps 713 mmHg 56%
    23:00 +26°C° 0.2 mm 3 mps 713 mmHg 61%
    Show more